Location: Branche des Alpilles
(43.6087°N, 4.6976°E)
Time: 19:22:27
(UTC+00:00)

N. Korean satellite - Pass Details

Date: 01 October 2021
Orbit: 450 x 495 km, 97.3° (Epoch: 25 October)

Event Time Altitude Azimuth Distance (km) Brightness Sun altitude
Rises 03:51:50 0° 34° (NE) 2,552 11.0 -20.0°
Reaches altitude 10° 03:55:02 10° 66° (ENE) 1,676 10.5 -19.4°
Maximum altitude 03:56:33 12° 91° (E) 1,541 10.2 -19.2°
Drops below altitude 10° 03:58:05 10° 116° (ESE) 1,678 10.0 -18.9°
Sets 04:01:16 0° 147° (SSE) 2,560 10.5 -18.3°
